Tracking 33181 objects as of 19-Feb-2026
HD Live streaming from Space Station
objects crossing your sky now

MIMAN

Track MIMAN now!
10-day predictions
MIMAN is classified as:


NORAD ID: 52900
Int'l Code: 2022-065G
Perigee: 689.0 km
Apogee: 700.8 km
Inclination: 98.2 °
Period: 98.5 minutes
Semi major axis: 7065 km
RCS: Unknown
Launch date: June 21, 2022
Source: South Korea (SKOR)
Launch site: Naro Space Center, South Korea (NSC)

Uplink (MHz):
Downlink (MHz): 436.500
Beacon (MHz):
Mode: 2k4/4k8* FSK
Call sign:
Status: Active

Your satellite tracking list
Your tracking list is empty




NASA's NSSDC Master Catalog

Two Line Element Set (TLE):
1 52900U 22065G   26049.35432862  .00000688  00000-0  14775-3 0  9994
2 52900  98.2046 192.5750 0008377  44.9671 315.2207 14.61675922193086
Source of the keplerian elements: AFSPC